User: anonymous   Login
Location: Unspecified
(0.0000°N, 0.0000°E)
Time: 20:49:01
(UTC+01:00)
Language:

CZ-4 DEB - Orbit

View from above orbital plane
View from above orbital plane
View from above satellite
View from above satellite

Ground track
Ground track

The orbit data is extracted from the following two-line orbital elements,

1 29508U 06046D   16337.25441704  .00050543  00000-0  54298-3 0  9995
2 29508  97.6244  29.1252 0001361  42.8900 317.2464 15.63626409555119
Epoch (UTC): 02 December 2016 06:06:21
Eccentricity: 0.0001361
inclination: 97.6244°
perigee height: 376 km
apogee height: 378 km
right ascension of ascending node: 29.1252°
argument of perigee: 42.8900°
revolutions per day: 15.63626409
mean anomaly at epoch: 317.2464°
orbit number at epoch: 55511

The dashed part of the orbit path shows where the satellite is in the earth's shadow,  

DLR